Showing default

GONETS D1 5, 24729

Orbit data source: Space-Track

GONETS D1 5, 24729 is a payload satellite owned by Gonets (CIS) in LEO that was launched on Fri, 14 Feb 1997 UTC via a TSIKLON-3 launch vehicle from the Plesetsk Missile And Space Complex (PKMTR). Payload-class satellites include a variety of spacecraft equipped with specific instruments for various scientific and technological missions. These include communications satellites like Starlink; space stations such as the ISS; scientific satellites like the Hubble; Earth observation satellites from companies like Planet Labs, Umbra, and HawkEye 360; GPS; miniature CubeSats for education and research; and military/defense satellites.

Loading next visibility...
Identifier
24729, 1997-006E
Orbit
LEO
Country
Flag of CISCIS
Related business
Manufacturer
NPO PM
Mission
Non-operational Civil Communications
Bus & Motor
STRELA-3, Unknown motor
Mass
225 kg wet, 225 kg dry
Launch date (UTC)
1997-02-14 (29 years ago)
Launch vehicle
TSIKLON-3
Launch site
Plesetsk Missile And Space Complex (PKMTR)
Object type
Payload
Rocket body
Debris
Shape & HBR
Cyl + 1 Ant, 3.5 m
Radar Cross Section
1.798 m², Medium (>0.1 m² and < 1m²)

Expand to show TLE details & history
Last TLE update: 1 day ago

TLE from 1 day ago
0 GONETS D1 5
1 24729U 97006E   25259.93785707  .00000040  00000-0  16181-3 0  9999
2 24729  82.5962  56.6717 0004848 142.9585 333.1542 12.62977572317963
Epoch: 2025-09-16T22:30Z
TLE epoch observation values (Epoch: 2025-09-16T22:30:30.85Z)
Latitude
63.03737°
Longitude
-111.80292°
Altitude
1,418.106 km
Speed
7.159 km/s
True Right ascension
14h 47m 47s
True Declination
62° 54' 36"
Sunlit
Object was in daylight at epoch
Visualization orbit readout
Latitude
Unknown
Longitude
Unknown
Altitude
Unknown
Speed
Unknown
Apparent Right ascension
Unknown
Apparent Declination
Unknown
Sunlit
N/A
Visualization observer readout
Local Sidereal Time
16:48:00
Azimuth
Unknown
Elevation
Unknown
Doppler factor
Unknown
Orbital elements
Apogee altitude
1,411.772 km
Perigee altitude
1,404.223 km
Semi-major axis
7,786.135 km
Eccentricity
0.00048
Inclination
82.5962°
RAAN
56.6717°
Arg. of periapsis
142.9585°
True anomaly
333.1291°
Mean anomaly
333.1542°
Eccentric anomaly
333.14165°
Mean motion
3.15908 °/min
Orbital period
113.96 mins
BSTAR
0.00016181
Loading maneuver chart data...
Computing Atmospheric mass density...
Loading historical data...
Loading historical data...
Loading historical data...
Loading historical data...
Loading historical data...
Loading historical data...
Loading historical data...

Documentation

Showing up to 5 results
|